FENGYUN 1C DEB

Satellite information

Favourite Embed

Satellite Type and Status

DEBRISIN ORBIT

Key statistics

Satellite FENGYUN 1C DEB at a glance.

Uptime

9715

Days in orbit

Revolutions

≈ 14.4

Per day

Orbit

SSO

Sun Synchronous Orbit

Inclination

99.0

Latest

Satellite identification and parameters

Extended collection of information and parameters for FENGYUN 1C DEB.

Object identification

Identified? True

Debris? True

Object name: FENGYUN 1C DEB

International designator: 1999-025EFM

Object number (NORAD): 37077

Object ID (CCSDS): 37077

Country: PEOPLES REPUBLIC OF CHINA (PRC)

Current information (Y/N): Y

RCS size: SMALL

Orbital parameters

Period: 99.917 minutes

Inclination: 99.0351 deg

SMA: 7132.679 km

Apoapsis: 822.542 km

Periapsis: 686.545 km

RAAN: 62.6157 deg

Eccentricy: 0.00953337

Argument of periapsis: 326.6002 deg

Mean anomaly: 32.9194 deg

Mean motion: 14.41198407 rev/day

Mean motion (dot): 0.00001783 rev/day2

B* drag term: 0.00053876552 1/REarth

Two-line elements (TLE)

Creation date: Dec. 14, 2025, 3:07 a.m.

Reference frame: TEME

Reference center: EARTH

Epoch: Dec. 13, 2025, 10:34 a.m. UTC

TLE line 0: 0 FENGYUN 1C DEB

TLE line 1: 1 37077U 99025EFM 25347.44040203 .00001783 00000-0 53877-3 0 9999

TLE line 2: 2 37077 99.0351 62.6157 0095334 326.6002 32.9194 14.41198407849652

Live tracking on map

Real-time ground track for satellite FENGYUN 1C DEB.

In-orbit conjunctions

A list of the most updated potential collisions computed for object FENGYUN 1C DEB.

Target Orbit TCA Probability of collision Miss distance Type
COSMOS 1992 LEO 2025-05-26 04:31:23 0.0006102453 492.0 (m) PAYLOAD
IRS B3 SSO 2024-07-13 12:16:54 0.0006034823 71.0 (m) PAYLOAD

Associated space launch

Chinese polar orbiting meteorological satellite

FENGYUN 1C DEB was lifted into orbit during the mission ‘Long March 4B | Feng Yun 1C’, on board a Long March 4B space rocket.

The launch took place on May 10, 1999, 1:33 a.m. from Launch Complex 7.

For more information about the launch, click the button.

Launch to space Long March 4B | Feng Yun 1C
Long March 4B | Feng Yun 1C

Agency: N/A

Status: Launch Successful

Launch date: May 10, 1999, 1:33 a.m. UTC

Rocket: Long March 4B

Launch pad: Launch Complex 7

Location: Taiyuan Satellite Launch Center, People's Republic of China

...

Latest news about this satellite

There are no fresh news available about this satellite. Check back as we update our databases every day.


Newsletter sign-up

Weekly statistics, charts and insights to help you stay on top of the space industry.